Information on these data can be found in provided Readme document
Contact Info: Zachary Fasnacht (zachary.fasnacht@ssaihq.com); Nickolay Krotkov (nickolay.a.krotkov@nasa.gov); Lok Lamsal (lok.lamsal@nasa.gov)

FillValue: -999.
ScaleFactor: 1e15
Units: molecules/cm^2

Date(yyyy-mm-dd),City,Country,LonCenter,LatCenter,BoundingCoordinates,Median,Q1,Q3,Mean,Baseline_Median,Baseline_Q1,Baseline_Q3,Baseline_Mean,NumGoodSamples,NumTotalSamples
2015-01-01,Vienna,Austria,16.3333,48.2333,[15.833300000000001 47.7333 16.8333 48.7333],3.157,1.909,4.6,3.309,3.3,1.937,5.268,3.68,67.0,643.0
2015-01-02,Vienna,Austria,16.3333,48.2333,[15.833300000000001 47.7333 16.8333 48.7333],3.157,1.909,4.6,3.3,3.2,1.779,5.17,3.62,66.0,628.0
2015-01-03,Vienna,Austria,16.3333,48.2333,[15.833300000000001 47.7333 16.8333 48.7333],3.017,2.157,3.835,3.408,3.115,1.756,5.013,3.642,46.0,628.0
2015-01-04,Vienna,Austria,16.3333,48.2333,[15.833300000000001 47.7333 16.8333 48.7333],3.017,2.157,3.835,3.408,3.245,1.82,5.007,3.711,46.0,641.0
2015-01-05,Vienna,Austria,16.3333,48.2333,[15.833300000000001 47.7333 16.8333 48.7333],3.017,2.157,3.835,3.408,3.159,1.67,4.859,3.643,46.0,630.0
2015-01-06,Vienna,Austria,16.3333,48.2333,[15.833300000000001 47.7333 16.8333 48.7333],3.374,2.345,4.933,3.568,3.104,1.723,5.038,3.613,85.0,634.0
2015-01-07,Vienna,Austria,16.3333,48.2333,[15.833300000000001 47.7333 16.8333 48.7333],3.374,2.345,4.933,3.568,3.716,2.182,5.696,4.074,85.0,638.0
2015-01-08,Vienna,Austria,16.3333,48.2333,[15.833300000000001 47.7333 16.8333 48.7333],3.078,1.909,4.511,3.232,3.836,2.273,5.969,4.131,98.0,640.0
2015-01-09,Vienna,Austria,16.3333,48.2333,[15.833300000000001 47.7333 16.8333 48.7333],3.133,1.923,4.567,3.398,3.887,2.271,6.14,4.297,103.0,633.0
2015-01-10,Vienna,Austria,16.3333,48.2333,[15.833300000000001 47.7333 16.8333 48.7333],3.055,1.909,4.38,3.195,3.741,2.191,5.317,3.977,91.0,592.0
2015-01-11,Vienna,Austria,16.3333,48.2333,[15.833300000000001 47.7333 16.8333 48.7333],3.133,1.923,4.839,3.413,3.898,2.277,5.69,4.14,97.0,588.0
2015-01-12,Vienna,Austria,16.3333,48.2333,[15.833300000000001 47.7333 16.8333 48.7333],3.133,1.923,4.933,3.466,4.06,2.367,5.959,4.469,91.0,587.0
2015-01-13,Vienna,Austria,16.3333,48.2333,[15.833300000000001 47.7333 16.8333 48.7333],3.133,1.923,4.933,3.466,4.38,2.523,6.653,4.731,91.0,595.0
2015-01-14,Vienna,Austria,16.3333,48.2333,[15.833300000000001 47.7333 16.8333 48.7333],3.374,1.792,5.205,3.625,4.51,2.579,7.059,5.078,69.0,591.0
2015-01-15,Vienna,Austria,16.3333,48.2333,[15.833300000000001 47.7333 16.8333 48.7333],3.374,1.792,5.205,3.625,4.767,2.857,6.8,5.167,69.0,595.0
2015-01-16,Vienna,Austria,16.3333,48.2333,[15.833300000000001 47.7333 16.8333 48.7333],3.374,1.792,5.205,3.625,4.642,2.814,6.757,5.117,69.0,592.0
2015-01-17,Vienna,Austria,16.3333,48.2333,[15.833300000000001 47.7333 16.8333 48.7333],3.374,1.792,5.205,3.625,4.606,2.735,6.77,5.074,69.0,599.0
2015-01-18,Vienna,Austria,16.3333,48.2333,[15.833300000000001 47.7333 16.8333 48.7333],3.863,1.923,5.308,3.866,4.59,2.655,6.888,5.089,66.0,582.0
2015-01-19,Vienna,Austria,16.3333,48.2333,[15.833300000000001 47.7333 16.8333 48.7333],3.863,1.923,5.308,3.866,4.643,2.637,6.841,5.086,66.0,582.0
2015-01-20,Vienna,Austria,16.3333,48.2333,[15.833300000000001 47.7333 16.8333 48.7333],3.863,1.923,5.308,3.866,4.615,2.813,6.842,5.135,66.0,595.0
2015-01-21,Vienna,Austria,16.3333,48.2333,[15.833300000000001 47.7333 16.8333 48.7333],2.771,0.17,6.299,4.027,4.708,2.91,7.309,5.484,27.0,587.0
2015-01-22,Vienna,Austria,16.3333,48.2333,[15.833300000000001 47.7333 16.8333 48.7333],2.508,0.17,6.299,3.787,4.65,2.849,7.479,5.618,29.0,591.0
2015-01-23,Vienna,Austria,16.3333,48.2333,[15.833300000000001 47.7333 16.8333 48.7333],7.517,2.771,13.355,7.878,4.56,2.991,6.927,5.397,13.0,592.0
2015-01-24,Vienna,Austria,16.3333,48.2333,[15.833300000000001 47.7333 16.8333 48.7333],7.427,1.361,7.517,6.179,4.492,3.079,6.472,5.216,10.0,593.0
2015-01-25,Vienna,Austria,16.3333,48.2333,[15.833300000000001 47.7333 16.8333 48.7333],7.282,2.975,8.706,6.174,4.603,3.123,6.362,5.141,16.0,629.0
2015-01-26,Vienna,Austria,16.3333,48.2333,[15.833300000000001 47.7333 16.8333 48.7333],2.975,1.361,5.628,3.707,4.375,2.989,6.202,5.042,13.0,628.0
2015-01-27,Vienna,Austria,16.3333,48.2333,[15.833300000000001 47.7333 16.8333 48.7333],4.746,4.149,6.654,5.813,4.384,3.325,6.023,4.955,40.0,625.0
2015-01-28,Vienna,Austria,16.3333,48.2333,[15.833300000000001 47.7333 16.8333 48.7333],4.604,3.988,6.654,5.442,4.028,2.857,5.683,4.668,41.0,624.0
2015-01-29,Vienna,Austria,16.3333,48.2333,[15.833300000000001 47.7333 16.8333 48.7333],4.604,3.988,6.654,5.403,3.718,2.828,5.426,4.36,42.0,633.0
2015-01-30,Vienna,Austria,16.3333,48.2333,[15.833300000000001 47.7333 16.8333 48.7333],4.604,3.988,6.654,5.403,3.707,2.565,5.571,4.344,42.0,628.0
2015-01-31,Vienna,Austria,16.3333,48.2333,[15.833300000000001 47.7333 16.8333 48.7333],3.981,2.83,4.604,4.282,3.45,2.236,5.023,3.977,77.0,631.0
2015-02-01,Vienna,Austria,16.3333,48.2333,[15.833300000000001 47.7333 16.8333 48.7333],3.981,2.83,4.604,4.282,3.468,2.292,5.096,3.974,77.0,630.0
2015-02-02,Vienna,Austria,16.3333,48.2333,[15.833300000000001 47.7333 16.8333 48.7333],3.981,2.83,4.604,4.282,3.625,2.335,5.634,4.176,77.0,635.0
2015-02-03,Vienna,Austria,16.3333,48.2333,[15.833300000000001 47.7333 16.8333 48.7333],3.981,2.83,4.604,4.282,3.511,2.307,5.574,4.098,77.0,618.0
2015-02-04,Vienna,Austria,16.3333,48.2333,[15.833300000000001 47.7333 16.8333 48.7333],3.975,2.732,4.599,4.112,3.662,2.483,5.758,4.239,82.0,616.0
2015-02-05,Vienna,Austria,16.3333,48.2333,[15.833300000000001 47.7333 16.8333 48.7333],3.975,2.737,4.711,4.23,3.671,2.494,5.732,4.249,107.0,629.0
2015-02-06,Vienna,Austria,16.3333,48.2333,[15.833300000000001 47.7333 16.8333 48.7333],3.981,2.79,4.746,4.296,3.708,2.52,5.75,4.32,105.0,621.0
2015-02-07,Vienna,Austria,16.3333,48.2333,[15.833300000000001 47.7333 16.8333 48.7333],3.981,2.737,5.49,4.474,3.887,2.581,6.036,4.447,131.0,626.0
2015-02-08,Vienna,Austria,16.3333,48.2333,[15.833300000000001 47.7333 16.8333 48.7333],3.981,2.737,5.49,4.484,3.913,2.626,5.927,4.485,129.0,628.0
2015-02-09,Vienna,Austria,16.3333,48.2333,[15.833300000000001 47.7333 16.8333 48.7333],3.988,2.79,4.861,4.327,4.118,2.631,5.947,4.546,148.0,630.0
2015-02-10,Vienna,Austria,16.3333,48.2333,[15.833300000000001 47.7333 16.8333 48.7333],3.982,2.737,4.861,4.321,4.114,2.617,5.932,4.541,161.0,626.0
2015-02-11,Vienna,Austria,16.3333,48.2333,[15.833300000000001 47.7333 16.8333 48.7333],3.594,2.535,4.275,3.944,4.119,2.649,6.066,4.631,134.0,583.0
2015-02-12,Vienna,Austria,16.3333,48.2333,[15.833300000000001 47.7333 16.8333 48.7333],3.937,2.729,4.759,4.288,4.137,2.681,6.1,4.682,144.0,580.0
2015-02-13,Vienna,Austria,16.3333,48.2333,[15.833300000000001 47.7333 16.8333 48.7333],4.09,2.805,5.875,4.544,4.265,2.819,6.427,4.815,151.0,577.0
2015-02-14,Vienna,Austria,16.3333,48.2333,[15.833300000000001 47.7333 16.8333 48.7333],4.251,3.112,6.598,5.217,4.412,2.99,6.795,5.158,193.0,586.0
2015-02-15,Vienna,Austria,16.3333,48.2333,[15.833300000000001 47.7333 16.8333 48.7333],5.287,3.553,7.273,5.683,4.897,3.268,7.135,5.455,158.0,583.0
2015-02-16,Vienna,Austria,16.3333,48.2333,[15.833300000000001 47.7333 16.8333 48.7333],5.192,3.553,7.53,5.683,4.842,3.315,7.105,5.453,161.0,588.0
2015-02-17,Vienna,Austria,16.3333,48.2333,[15.833300000000001 47.7333 16.8333 48.7333],5.192,3.553,7.53,5.683,4.84,3.252,6.928,5.37,161.0,590.0
2015-02-18,Vienna,Austria,16.3333,48.2333,[15.833300000000001 47.7333 16.8333 48.7333],5.192,3.553,7.53,5.683,4.611,3.089,6.868,5.168,161.0,597.0
2015-02-19,Vienna,Austria,16.3333,48.2333,[15.833300000000001 47.7333 16.8333 48.7333],5.287,3.721,7.53,5.792,4.697,3.112,7.05,5.215,156.0,582.0
2015-02-20,Vienna,Austria,16.3333,48.2333,[15.833300000000001 47.7333 16.8333 48.7333],5.192,3.553,7.53,5.716,4.64,3.077,6.855,5.114,137.0,585.0
2015-02-21,Vienna,Austria,16.3333,48.2333,[15.833300000000001 47.7333 16.8333 48.7333],5.287,3.721,7.791,5.853,4.563,3.078,6.801,5.117,144.0,597.0
2015-02-22,Vienna,Austria,16.3333,48.2333,[15.833300000000001 47.7333 16.8333 48.7333],5.291,3.894,7.923,6.002,4.56,3.132,6.979,5.213,118.0,590.0
2015-02-23,Vienna,Austria,16.3333,48.2333,[15.833300000000001 47.7333 16.8333 48.7333],5.291,3.894,7.923,5.996,4.704,3.054,6.914,5.249,119.0,594.0
2015-02-24,Vienna,Austria,16.3333,48.2333,[15.833300000000001 47.7333 16.8333 48.7333],6.186,4.222,8.375,6.604,4.748,3.072,6.835,5.254,94.0,596.0
2015-02-25,Vienna,Austria,16.3333,48.2333,[15.833300000000001 47.7333 16.8333 48.7333],6.203,4.517,7.993,6.661,4.532,2.904,6.396,4.992,90.0,596.0
2015-02-26,Vienna,Austria,16.3333,48.2333,[15.833300000000001 47.7333 16.8333 48.7333],6.203,4.517,7.993,6.661,4.356,2.824,6.152,4.777,90.0,633.0
2015-02-27,Vienna,Austria,16.3333,48.2333,[15.833300000000001 47.7333 16.8333 48.7333],6.186,4.517,7.993,6.496,4.248,2.706,5.74,4.612,79.0,637.0
2015-02-28,Vienna,Austria,16.3333,48.2333,[15.833300000000001 47.7333 16.8333 48.7333],6.383,3.885,8.586,6.523,4.057,2.468,5.516,4.426,75.0,633.0
2015-03-01,Vienna,Austria,16.3333,48.2333,[15.833300000000001 47.7333 16.8333 48.7333],3.402,1.927,4.517,3.957,3.292,2.072,4.769,3.792,44.0,632.0
2015-03-02,Vienna,Austria,16.3333,48.2333,[15.833300000000001 47.7333 16.8333 48.7333],3.324,1.927,4.268,3.763,3.229,1.981,4.888,3.738,55.0,640.0
2015-03-03,Vienna,Austria,16.3333,48.2333,[15.833300000000001 47.7333 16.8333 48.7333],3.324,1.488,4.251,3.595,3.353,2.139,4.897,3.76,52.0,636.0
2015-03-04,Vienna,Austria,16.3333,48.2333,[15.833300000000001 47.7333 16.8333 48.7333],3.324,1.488,4.251,3.595,3.257,1.925,4.913,3.699,52.0,638.0
2015-03-05,Vienna,Austria,16.3333,48.2333,[15.833300000000001 47.7333 16.8333 48.7333],3.324,1.488,4.251,3.595,3.394,1.967,5.094,3.865,52.0,636.0
2015-03-06,Vienna,Austria,16.3333,48.2333,[15.833300000000001 47.7333 16.8333 48.7333],3.324,1.488,4.251,3.595,3.323,1.953,4.668,3.666,52.0,640.0
2015-03-07,Vienna,Austria,16.3333,48.2333,[15.833300000000001 47.7333 16.8333 48.7333],3.049,1.488,4.898,3.744,3.07,1.922,4.796,3.669,46.0,620.0
2015-03-08,Vienna,Austria,16.3333,48.2333,[15.833300000000001 47.7333 16.8333 48.7333],2.879,1.333,4.251,3.174,3.059,1.878,4.499,3.481,39.0,620.0
2015-03-09,Vienna,Austria,16.3333,48.2333,[15.833300000000001 47.7333 16.8333 48.7333],2.879,1.488,4.251,3.211,3.048,1.902,4.472,3.466,42.0,631.0
2015-03-10,Vienna,Austria,16.3333,48.2333,[15.833300000000001 47.7333 16.8333 48.7333],2.879,1.488,4.251,3.202,2.939,1.817,4.33,3.346,41.0,623.0
2015-03-11,Vienna,Austria,16.3333,48.2333,[15.833300000000001 47.7333 16.8333 48.7333],3.379,2.223,4.46,3.465,2.953,1.892,4.275,3.26,80.0,627.0
2015-03-12,Vienna,Austria,16.3333,48.2333,[15.833300000000001 47.7333 16.8333 48.7333],3.222,1.927,3.968,3.094,3.274,1.925,4.797,3.496,68.0,628.0
2015-03-13,Vienna,Austria,16.3333,48.2333,[15.833300000000001 47.7333 16.8333 48.7333],3.324,2.133,4.251,3.276,3.285,1.903,4.764,3.434,77.0,631.0
2015-03-14,Vienna,Austria,16.3333,48.2333,[15.833300000000001 47.7333 16.8333 48.7333],3.478,2.258,4.562,3.921,3.583,2.184,5.25,3.864,93.0,622.0
2015-03-15,Vienna,Austria,16.3333,48.2333,[15.833300000000001 47.7333 16.8333 48.7333],3.478,2.223,4.642,3.926,3.851,2.199,5.575,4.08,89.0,581.0
2015-03-16,Vienna,Austria,16.3333,48.2333,[15.833300000000001 47.7333 16.8333 48.7333],3.791,2.795,5.375,4.477,4.065,2.413,5.852,4.367,114.0,576.0
2015-03-17,Vienna,Austria,16.3333,48.2333,[15.833300000000001 47.7333 16.8333 48.7333],3.666,2.462,4.642,4.261,3.981,2.374,5.523,4.307,114.0,575.0
2015-03-18,Vienna,Austria,16.3333,48.2333,[15.833300000000001 47.7333 16.8333 48.7333],3.666,2.462,4.642,4.261,3.938,2.402,5.596,4.375,114.0,583.0
2015-03-19,Vienna,Austria,16.3333,48.2333,[15.833300000000001 47.7333 16.8333 48.7333],3.666,2.462,4.642,4.261,4.092,2.521,5.731,4.457,114.0,581.0
2015-03-20,Vienna,Austria,16.3333,48.2333,[15.833300000000001 47.7333 16.8333 48.7333],3.666,2.462,4.642,4.261,4.092,2.521,5.731,4.457,114.0,586.0
2015-03-21,Vienna,Austria,16.3333,48.2333,[15.833300000000001 47.7333 16.8333 48.7333],3.666,2.462,4.642,4.261,3.765,2.387,5.559,4.264,114.0,588.0
2015-03-22,Vienna,Austria,16.3333,48.2333,[15.833300000000001 47.7333 16.8333 48.7333],3.666,2.462,4.642,4.261,4.035,2.577,6.012,4.5,114.0,599.0
2015-03-23,Vienna,Austria,16.3333,48.2333,[15.833300000000001 47.7333 16.8333 48.7333],3.666,2.462,4.714,4.36,4.019,2.541,5.986,4.487,116.0,583.0
2015-03-24,Vienna,Austria,16.3333,48.2333,[15.833300000000001 47.7333 16.8333 48.7333],3.666,2.462,4.714,4.356,3.886,2.359,5.941,4.394,113.0,586.0
2015-03-25,Vienna,Austria,16.3333,48.2333,[15.833300000000001 47.7333 16.8333 48.7333],3.642,2.462,4.714,4.349,3.946,2.544,5.841,4.398,118.0,598.0
2015-03-26,Vienna,Austria,16.3333,48.2333,[15.833300000000001 47.7333 16.8333 48.7333],3.618,2.459,4.714,4.605,4.09,2.715,5.908,4.542,79.0,591.0
2015-03-27,Vienna,Austria,16.3333,48.2333,[15.833300000000001 47.7333 16.8333 48.7333],3.289,2.406,4.246,4.263,3.884,2.635,5.56,4.377,97.0,596.0
2015-03-28,Vienna,Austria,16.3333,48.2333,[15.833300000000001 47.7333 16.8333 48.7333],2.795,2.337,4.224,4.181,3.718,2.466,5.466,4.21,88.0,596.0
2015-03-29,Vienna,Austria,16.3333,48.2333,[15.833300000000001 47.7333 16.8333 48.7333],2.583,2.282,4.05,3.541,3.648,2.412,5.191,4.082,73.0,599.0
2015-03-30,Vienna,Austria,16.3333,48.2333,[15.833300000000001 47.7333 16.8333 48.7333],2.73,2.337,4.05,3.612,3.56,2.345,5.156,4.036,81.0,637.0
2015-03-31,Vienna,Austria,16.3333,48.2333,[15.833300000000001 47.7333 16.8333 48.7333],2.466,2.282,3.666,3.164,3.493,2.261,5.013,3.863,45.0,637.0
2015-04-01,Vienna,Austria,16.3333,48.2333,[15.833300000000001 47.7333 16.8333 48.7333],2.73,1.988,4.135,3.697,3.51,2.212,4.965,3.825,34.0,634.0
2015-04-02,Vienna,Austria,16.3333,48.2333,[15.833300000000001 47.7333 16.8333 48.7333],2.841,2.247,4.03,3.42,3.313,2.13,4.694,3.632,44.0,632.0
2015-04-03,Vienna,Austria,16.3333,48.2333,[15.833300000000001 47.7333 16.8333 48.7333],3.37,2.351,4.169,3.859,3.36,2.209,4.582,3.634,85.0,641.0
2015-04-04,Vienna,Austria,16.3333,48.2333,[15.833300000000001 47.7333 16.8333 48.7333],3.37,2.351,4.169,3.859,3.404,2.215,4.645,3.681,85.0,648.0
2015-04-05,Vienna,Austria,16.3333,48.2333,[15.833300000000001 47.7333 16.8333 48.7333],3.37,2.337,4.169,3.751,3.462,2.359,4.698,3.721,87.0,681.0
2015-04-06,Vienna,Austria,16.3333,48.2333,[15.833300000000001 47.7333 16.8333 48.7333],3.37,2.337,4.169,3.751,3.234,2.103,4.447,3.423,87.0,676.0
2015-04-07,Vienna,Austria,16.3333,48.2333,[15.833300000000001 47.7333 16.8333 48.7333],3.89,2.363,4.716,3.829,3.294,2.088,4.448,3.412,95.0,721.0
2015-04-08,Vienna,Austria,16.3333,48.2333,[15.833300000000001 47.7333 16.8333 48.7333],3.482,2.251,4.483,3.656,3.285,2.199,4.443,3.442,122.0,720.0
2015-04-09,Vienna,Austria,16.3333,48.2333,[15.833300000000001 47.7333 16.8333 48.7333],3.381,2.102,4.447,3.43,3.344,2.292,4.562,3.479,134.0,724.0
2015-04-10,Vienna,Austria,16.3333,48.2333,[15.833300000000001 47.7333 16.8333 48.7333],3.381,2.102,4.447,3.43,3.361,2.305,4.622,3.486,134.0,737.0
2015-04-11,Vienna,Austria,16.3333,48.2333,[15.833300000000001 47.7333 16.8333 48.7333],3.676,2.17,4.603,3.539,3.351,2.319,4.573,3.452,116.0,730.0
2015-04-12,Vienna,Austria,16.3333,48.2333,[15.833300000000001 47.7333 16.8333 48.7333],3.285,2.247,4.494,3.486,3.292,1.968,4.459,3.363,156.0,735.0
2015-04-13,Vienna,Austria,16.3333,48.2333,[15.833300000000001 47.7333 16.8333 48.7333],3.285,2.247,4.527,3.485,3.109,2.014,4.263,3.285,155.0,735.0
2015-04-14,Vienna,Austria,16.3333,48.2333,[15.833300000000001 47.7333 16.8333 48.7333],3.052,1.931,4.317,3.214,2.819,1.693,4.104,2.99,171.0,737.0
2015-04-15,Vienna,Austria,16.3333,48.2333,[15.833300000000001 47.7333 16.8333 48.7333],3.052,1.931,4.317,3.183,2.938,1.865,4.313,3.137,173.0,733.0
2015-04-16,Vienna,Austria,16.3333,48.2333,[15.833300000000001 47.7333 16.8333 48.7333],3.052,1.931,4.317,3.183,2.948,1.863,4.447,3.165,173.0,690.0
2015-04-17,Vienna,Austria,16.3333,48.2333,[15.833300000000001 47.7333 16.8333 48.7333],3.061,1.931,4.447,3.212,3.028,1.924,4.579,3.295,186.0,746.0
2015-04-18,Vienna,Austria,16.3333,48.2333,[15.833300000000001 47.7333 16.8333 48.7333],2.961,1.621,4.094,2.927,2.952,1.698,4.472,3.123,156.0,743.0
2015-04-19,Vienna,Austria,16.3333,48.2333,[15.833300000000001 47.7333 16.8333 48.7333],2.961,1.648,4.317,3.011,2.884,1.669,4.372,3.067,165.0,768.0
2015-04-20,Vienna,Austria,16.3333,48.2333,[15.833300000000001 47.7333 16.8333 48.7333],2.961,1.688,4.317,3.043,2.856,1.627,4.348,3.041,163.0,747.0
2015-04-21,Vienna,Austria,16.3333,48.2333,[15.833300000000001 47.7333 16.8333 48.7333],2.961,1.688,4.317,3.043,2.843,1.621,4.284,3.082,163.0,752.0
2015-04-22,Vienna,Austria,16.3333,48.2333,[15.833300000000001 47.7333 16.8333 48.7333],2.871,1.456,4.035,2.829,2.806,1.558,4.174,3.01,153.0,713.0
2015-04-23,Vienna,Austria,16.3333,48.2333,[15.833300000000001 47.7333 16.8333 48.7333],2.942,1.576,4.048,2.881,2.792,1.566,4.177,3.016,126.0,700.0
2015-04-24,Vienna,Austria,16.3333,48.2333,[15.833300000000001 47.7333 16.8333 48.7333],2.961,1.882,4.035,2.978,2.862,1.706,4.074,2.988,109.0,681.0
2015-04-25,Vienna,Austria,16.3333,48.2333,[15.833300000000001 47.7333 16.8333 48.7333],2.961,1.882,4.035,2.978,2.834,1.68,3.996,2.96,109.0,682.0
2015-04-26,Vienna,Austria,16.3333,48.2333,[15.833300000000001 47.7333 16.8333 48.7333],2.961,1.882,4.035,2.978,2.809,1.672,4.166,3.009,109.0,695.0
2015-04-27,Vienna,Austria,16.3333,48.2333,[15.833300000000001 47.7333 16.8333 48.7333],2.915,1.576,4.035,2.839,2.948,1.825,4.268,3.101,69.0,688.0
2015-04-28,Vienna,Austria,16.3333,48.2333,[15.833300000000001 47.7333 16.8333 48.7333],2.942,1.576,4.094,2.962,2.941,1.771,4.365,3.161,103.0,691.0
2015-04-29,Vienna,Austria,16.3333,48.2333,[15.833300000000001 47.7333 16.8333 48.7333],3.209,1.996,4.49,3.29,3.127,2.058,4.602,3.371,79.0,692.0
2015-04-30,Vienna,Austria,16.3333,48.2333,[15.833300000000001 47.7333 16.8333 48.7333],3.27,1.996,4.49,3.367,3.04,1.979,4.409,3.246,84.0,693.0
2015-05-01,Vienna,Austria,16.3333,48.2333,[15.833300000000001 47.7333 16.8333 48.7333],3.275,1.996,4.49,3.373,3.152,2.061,4.451,3.278,100.0,728.0
2015-05-02,Vienna,Austria,16.3333,48.2333,[15.833300000000001 47.7333 16.8333 48.7333],3.469,1.845,4.49,3.375,3.112,2.034,4.379,3.197,77.0,673.0
2015-05-03,Vienna,Austria,16.3333,48.2333,[15.833300000000001 47.7333 16.8333 48.7333],3.506,1.854,4.51,3.515,3.494,2.352,4.802,3.553,71.0,671.0
2015-05-04,Vienna,Austria,16.3333,48.2333,[15.833300000000001 47.7333 16.8333 48.7333],2.59,1.635,3.688,2.778,3.423,2.346,4.755,3.514,73.0,643.0
2015-05-05,Vienna,Austria,16.3333,48.2333,[15.833300000000001 47.7333 16.8333 48.7333],2.531,1.659,3.688,2.757,3.415,2.377,4.693,3.533,104.0,639.0
2015-05-06,Vienna,Austria,16.3333,48.2333,[15.833300000000001 47.7333 16.8333 48.7333],2.531,1.659,3.688,2.757,3.344,2.343,4.617,3.463,104.0,646.0
2015-05-07,Vienna,Austria,16.3333,48.2333,[15.833300000000001 47.7333 16.8333 48.7333],2.531,1.635,3.755,2.766,3.475,2.412,4.724,3.565,109.0,675.0
2015-05-08,Vienna,Austria,16.3333,48.2333,[15.833300000000001 47.7333 16.8333 48.7333],2.531,1.635,3.755,2.766,3.502,2.447,4.758,3.584,109.0,677.0
2015-05-09,Vienna,Austria,16.3333,48.2333,[15.833300000000001 47.7333 16.8333 48.7333],2.59,1.807,3.755,2.79,3.438,2.343,4.672,3.473,122.0,717.0
2015-05-10,Vienna,Austria,16.3333,48.2333,[15.833300000000001 47.7333 16.8333 48.7333],2.59,1.798,3.755,2.78,3.439,2.31,4.655,3.457,123.0,719.0
2015-05-11,Vienna,Austria,16.3333,48.2333,[15.833300000000001 47.7333 16.8333 48.7333],2.388,1.623,3.524,2.628,3.249,2.122,4.476,3.296,135.0,719.0
2015-05-12,Vienna,Austria,16.3333,48.2333,[15.833300000000001 47.7333 16.8333 48.7333],2.388,1.623,3.524,2.636,3.112,1.945,4.349,3.21,136.0,732.0
2015-05-13,Vienna,Austria,16.3333,48.2333,[15.833300000000001 47.7333 16.8333 48.7333],2.278,1.623,3.297,2.46,3.147,1.981,4.343,3.223,102.0,724.0
2015-05-14,Vienna,Austria,16.3333,48.2333,[15.833300000000001 47.7333 16.8333 48.7333],2.278,1.623,3.297,2.46,3.136,1.966,4.307,3.179,102.0,729.0
2015-05-15,Vienna,Austria,16.3333,48.2333,[15.833300000000001 47.7333 16.8333 48.7333],2.278,1.591,3.01,2.391,3.154,1.992,4.23,3.156,95.0,729.0
2015-05-16,Vienna,Austria,16.3333,48.2333,[15.833300000000001 47.7333 16.8333 48.7333],2.278,1.58,2.895,2.323,3.082,1.855,4.1,3.079,79.0,733.0
2015-05-17,Vienna,Austria,16.3333,48.2333,[15.833300000000001 47.7333 16.8333 48.7333],2.278,1.58,2.895,2.323,3.021,1.823,4.097,3.029,80.0,723.0
2015-05-18,Vienna,Austria,16.3333,48.2333,[15.833300000000001 47.7333 16.8333 48.7333],2.193,1.58,2.895,2.288,2.824,1.697,3.794,2.835,75.0,679.0
2015-05-19,Vienna,Austria,16.3333,48.2333,[15.833300000000001 47.7333 16.8333 48.7333],2.388,1.623,3.297,2.497,2.831,1.772,3.822,2.843,64.0,713.0
2015-05-20,Vienna,Austria,16.3333,48.2333,[15.833300000000001 47.7333 16.8333 48.7333],2.284,1.525,3.057,2.351,2.839,1.811,3.873,2.878,33.0,713.0
2015-05-21,Vienna,Austria,16.3333,48.2333,[15.833300000000001 47.7333 16.8333 48.7333],2.643,2.113,3.755,2.772,2.762,1.842,3.831,2.834,66.0,734.0
2015-05-22,Vienna,Austria,16.3333,48.2333,[15.833300000000001 47.7333 16.8333 48.7333],2.643,2.113,3.559,2.76,2.758,1.867,3.792,2.807,61.0,718.0
2015-05-23,Vienna,Austria,16.3333,48.2333,[15.833300000000001 47.7333 16.8333 48.7333],2.494,2.012,3.358,2.61,2.726,1.821,3.735,2.766,69.0,720.0
2015-05-24,Vienna,Austria,16.3333,48.2333,[15.833300000000001 47.7333 16.8333 48.7333],2.457,1.546,3.358,2.542,2.804,1.817,3.782,2.842,59.0,685.0
2015-05-25,Vienna,Austria,16.3333,48.2333,[15.833300000000001 47.7333 16.8333 48.7333],2.634,1.61,3.606,2.609,2.718,1.779,3.726,2.782,82.0,672.0
2015-05-26,Vienna,Austria,16.3333,48.2333,[15.833300000000001 47.7333 16.8333 48.7333],2.809,1.777,3.986,2.7,2.824,1.824,3.766,2.806,93.0,655.0
2015-05-27,Vienna,Austria,16.3333,48.2333,[15.833300000000001 47.7333 16.8333 48.7333],2.457,1.453,3.559,2.497,2.76,1.749,3.694,2.771,124.0,655.0
2015-05-28,Vienna,Austria,16.3333,48.2333,[15.833300000000001 47.7333 16.8333 48.7333],2.384,1.441,3.291,2.389,2.656,1.72,3.605,2.699,167.0,669.0
2015-05-29,Vienna,Austria,16.3333,48.2333,[15.833300000000001 47.7333 16.8333 48.7333],2.384,1.441,3.291,2.389,2.691,1.747,3.608,2.705,167.0,660.0
2015-05-30,Vienna,Austria,16.3333,48.2333,[15.833300000000001 47.7333 16.8333 48.7333],2.242,1.444,3.132,2.325,2.535,1.699,3.492,2.63,205.0,667.0
2015-05-31,Vienna,Austria,16.3333,48.2333,[15.833300000000001 47.7333 16.8333 48.7333],2.242,1.444,3.132,2.325,2.518,1.671,3.48,2.612,205.0,682.0
2015-06-01,Vienna,Austria,16.3333,48.2333,[15.833300000000001 47.7333 16.8333 48.7333],2.227,1.453,3.059,2.298,2.411,1.597,3.393,2.515,229.0,684.0
2015-06-02,Vienna,Austria,16.3333,48.2333,[15.833300000000001 47.7333 16.8333 48.7333],2.242,1.453,3.059,2.308,2.347,1.595,3.258,2.429,246.0,727.0
2015-06-03,Vienna,Austria,16.3333,48.2333,[15.833300000000001 47.7333 16.8333 48.7333],2.286,1.538,2.978,2.331,2.217,1.499,3.122,2.329,284.0,692.0
2015-06-04,Vienna,Austria,16.3333,48.2333,[15.833300000000001 47.7333 16.8333 48.7333],2.284,1.621,2.978,2.351,2.129,1.389,3.058,2.213,315.0,686.0
2015-06-05,Vienna,Austria,16.3333,48.2333,[15.833300000000001 47.7333 16.8333 48.7333],2.286,1.621,2.933,2.319,2.082,1.259,2.908,2.109,296.0,660.0
2015-06-06,Vienna,Austria,16.3333,48.2333,[15.833300000000001 47.7333 16.8333 48.7333],2.286,1.68,2.967,2.337,1.974,1.253,2.79,2.022,320.0,656.0
2015-06-07,Vienna,Austria,16.3333,48.2333,[15.833300000000001 47.7333 16.8333 48.7333],2.324,1.726,2.967,2.37,1.936,1.211,2.718,1.989,312.0,676.0
2015-06-08,Vienna,Austria,16.3333,48.2333,[15.833300000000001 47.7333 16.8333 48.7333],2.31,1.721,2.967,2.362,1.854,1.155,2.586,1.906,309.0,706.0
2015-06-09,Vienna,Austria,16.3333,48.2333,[15.833300000000001 47.7333 16.8333 48.7333],2.286,1.68,2.915,2.322,1.862,1.143,2.555,1.886,285.0,705.0
2015-06-10,Vienna,Austria,16.3333,48.2333,[15.833300000000001 47.7333 16.8333 48.7333],2.324,1.781,2.915,2.358,1.849,1.128,2.5,1.866,262.0,752.0